sat.trackr.live / text

‹ back to catalog

STARLINK-3116

NORAD 49146 · 2021-082S

PAYLOAD ACTIVE UNKNOWN

§ Identity

Operator
Country
US
Launch date
2021-09-14
Launch site
AFWTR
Launch vehicle
Mass (kg)
RCS (m²)

Purposes: comms

External: N2YO · Heavens-Above · Gunter

§ Orbital elements

Epoch: 2026-05-25T03:41:24.207360Z

Period
96.16 min
Inclination
70.0003°
Eccentricity
0.0002861
Mean motion
14.97522607 rev/d
Perigee alt
572.6 km
Apogee alt
576.5 km
Semi-major
6,952.7 km
B*
1.8389e-5
RAAN
82.7010°
Arg perigee
268.4347°
Mean anomaly
91.6484°
Rev number
25,905

§ Raw data

STARLINK-31161 49146U 21082S   26145.15375240  .00000123  00000+0  18389-4 0  99902 49146  70.0003  82.7010 0002861 268.4347  91.6484 14.97522607259051

JSON: /api/v1/satellites/49146 · /tle

For live sub-satellite position, see the globe view (requires WebGL).

§ Visibility from observer

Set your observer location to see the next 7 days of passes ≥ 10°. The values pass through the URL so the page stays shareable.

No JS? Fill the form by hand. The geolocation button needs JavaScript.